Regional Weather Roundup
Issued by NWS Little Rock, AR

Home | Current Version | Previous Version | Text Only | Print | Product List | Glossary On
Versions: 1 2 3 4 5 6 7 8 9 10 11 12 13 14 15 16 17 18 19 20 21 22 23 24 25 26 27 28 29 30 31 32 33 34 35 36 37 38 39 40 41 42 43 44 45 46 47 48 49 50
000
ASUS44 KLZK 020905
RWRLZK

WEATHER ROUNDUP FOR ARKANSAS
NATIONAL WEATHER SERVICE LITTLE ROCK AR
400 AM CDT SAT AUG 02 2014

NOTE: "FAIR" INDICATES FEW OR NO CLOUDS BELOW 12,000 FEET WITH NO
SIGNIFICANT WEATHER AND/OR OBSTRUCTIONS TO VISIBILITY.

ARZ001-003-010-029-021000-
NORTHWEST ARKANSAS

CITY           SKY/WX    TMP DP  RH WIND       PRES   REMARKS
FAYETTEVILLE   FOG       62  62 100 CALM      30.11R VSB 3/4
FORT SMITH     CLEAR     68  66  93 CALM      30.07S FOG
HARRISON       CLEAR     62  62 100 W3        30.11S
BENTONVILLE    CLEAR     64  61  88 CALM      30.12R
ROGERS         CLEAR     65  63  93 CALM      30.12R
SILOAM SPGS    CLEAR     64  57  77 CALM      30.12R
HIGHFILL       CLEAR     64  64 100 CALM      30.11R
$$

ARZ004-005-016-021000-
NORTH CENTRAL ARKANSAS

CITY           SKY/WX    TMP DP  RH WIND       PRES   REMARKS
BATESVILLE     CLEAR     66  64  94 W3        30.06S
FLIPPIN        PTCLDY    64  63  94 CALM      30.08F
MTN HOME       PTCLDY    65  65 100 CALM      30.07F FOG
$$

ARZ040-041-021000-
WEST CENTRAL ARKANSAS

CITY           SKY/WX    TMP DP  RH WIND       PRES   REMARKS
MENA           CLOUDY    64  64 100 CALM      30.08S VSB<1/4
MOUNT IDA      FOG       66  65  96 CALM      30.05R VSB 1/4
$$

ARZ009-017-025-026-028-021000-
NORTHEAST ARKANSAS

CITY           SKY/WX    TMP DP  RH WIND       PRES   REMARKS
CORNING        FAIR      66  66 100 N3        30.06S FOG
JONESBORO      CLEAR     67  62  84 CALM      30.04S
NEWPORT        CLEAR     67  66  96 N7        30.06S
WALNUT RIDGE   CLEAR     66  57  72 N6        30.05S
BLYTHEVILLE    CLEAR     66  64  93 NW5       30.04S
$$

ARZ022-023-033-042-044-021000-
CENTRAL ARKANSAS

CITY           SKY/WX    TMP DP  RH WIND       PRES   REMARKS
LITTLE ROCK    MOCLDY    71  67  87 N5        30.04S
N LITTLE ROCK    N/A     70  68  92 N6        30.04S
JACKSONVILLE   CLEAR     68  67  98 SW2       30.04S
SEARCY         CLEAR     68  67  96 N6        30.06R
HOT SPRINGS    PTCLDY    67  65  93 CALM      30.05S FOG
RUSSELLVILLE   CLEAR     66  64  93 CALM      30.06R FOG
CLINTON        FAIR      64  64 100 CALM      30.08S FOG
$$

ARZ036-021000-
EAST ARKANSAS

CITY           SKY/WX    TMP DP  RH WIND       PRES   REMARKS
WEST MEMPHIS   CLOUDY    69  68  96 CALM      30.02S
$$

ARZ050-053-066-070-073-021000-
SOUTHWEST ARKANSAS

CITY           SKY/WX    TMP DP  RH WIND       PRES   REMARKS
ARKADELPHIA    PTSUNNY   70  69  96 CALM      30.03S
CAMDEN         MOCLDY    68  66  94 CALM      30.01S FOG
TEXARKANA      CLOUDY    69  68  96 CALM      30.02F
EL DORADO      CLOUDY    68  67  96 N3        30.01S
DE QUEEN       CLOUDY    67  66  97 CALM      30.03R
$$

ARZ056-057-069-021000-
SOUTHEAST ARKANSAS

CITY           SKY/WX    TMP DP  RH WIND       PRES   REMARKS
PINE BLUFF     CLOUDY    71  67  87 N3        30.02S
STUTTGART      CLOUDY    72  68  88 NW6       30.04S
MONTICELLO     CLOUDY    71  69  93 CALM      30.01S FOG

$$




USA.gov is the U.S. government's official web portal to all federal, state and local government web resources and services.